Weather History for Montgomery, AL

Change the Weather History Date:

Sunday, March 30, 2014

  Actual Average Record
Temperature  
Mean Temperature 57 °F 60 °F  
Max Temperature 73 °F 73 °F 87 °F (1896)
Min Temperature 41 °F 48 °F 31 °F (1964)
Degree Days  
Heating Degree Days 8 6  
Month to date heating degree days 274 250  
Since 1 July heating degree days 2232 2122  
Cooling Degree Days 0 1  
Month to date cooling degree days 3 25  
Year to date cooling degree days 10 31  
Growing Degree Days 7 (Base 50)    
Moisture  
Dew Point 36 °F    
Average Humidity 54    
Maximum Humidity 83    
Minimum Humidity 24    
Precipitation  
Precipitation 0.00 in 0.18 in 2.72 in (1886)
Month to date precipitation 5.52 5.77  
Year to date precipitation 13.19 15.70  
Snow  
Snow 0.00 in 0.00 in - ()
Month to date snowfall 0.0 0.3  
Since 1 July snowfall 0.5 0.4  
Snow Depth 0.00 in    
Sea Level Pressure  
Sea Level Pressure 30.17 in    
Wind  
Wind Speed 6 mph (NW)    
Max Wind Speed 15 mph    
Max Gust Speed 21 mph    
Visibility 10 miles    
Events      
T = Trace of Precipitation, MM = Missing Value Source: NWS Daily Summary

Daily Weather History Graph

Daily Weather History Graph

Search for Another Location

Airport:

Trip Planner

Search our weather history database for the weather conditions in past years. The results will help you decide how hot, cold, wet, or windy it might be!

Date:

Astronomy

Mar. 30, 2014 Rise Set
Actual Time 6:36 AM CDT 7:04 PM CDT
Civil Twilight 6:11 AM CDT 7:28 PM CDT
Nautical Twilight 5:42 AM CDT 7:57 PM CDT
Astronomical Twilight 5:13 AM CDT 8:27 PM CDT
Moon 6:21 AM CDT (3/30) 7:14 PM CDT (3/30)
Length of Visible Light 13h 16m
Length of Day
12h 27m
Waning Crescent, 0% of the Moon is Illuminated
Mar 30
Waning Crescent
Mar 30
New
Apr 7
First Quarter
Apr 15
Full
Apr 22
Last Quarter

Hourly Weather History & Observations

Time (CDT) Temp. Windchill Dew Point Humidity Pressure Visibility Wind Dir Wind Speed Gust Speed Precip Events Conditions
12:53 AM 48.0 °F - 39.9 °F 74% 30.15 in 10.0 mi WNW 10.4 mph - N/A   Clear
1:53 AM 46.0 °F 43.9 °F 39.0 °F 76% 30.16 in 10.0 mi WNW 4.6 mph - N/A   Clear
2:18 AM 46.4 °F 42.9 °F 39.2 °F 76% 30.15 in 10.0 mi WNW 6.9 mph - N/A   Mostly Cloudy
2:25 AM 46.4 °F 43.5 °F 39.2 °F 76% 30.14 in 10.0 mi WNW 5.8 mph - N/A   Scattered Clouds
2:53 AM 45.0 °F 41.2 °F 39.0 °F 80% 30.14 in 10.0 mi WNW 6.9 mph - N/A   Clear
3:53 AM 44.1 °F 39.5 °F 37.9 °F 79% 30.14 in 10.0 mi West 8.1 mph - N/A   Clear
4:53 AM 43.0 °F 38.8 °F 37.9 °F 82% 30.16 in 10.0 mi WNW 6.9 mph - N/A   Clear
5:53 AM 42.1 °F 37.7 °F 37.9 °F 85% 30.18 in 10.0 mi WNW 6.9 mph - N/A   Clear
6:53 AM 42.1 °F 37.1 °F 37.0 °F 82% 30.20 in 10.0 mi NW 8.1 mph - N/A   Clear
7:53 AM 45.0 °F 40.1 °F 37.9 °F 76% 30.22 in 10.0 mi WNW 9.2 mph - N/A   Clear
8:53 AM 48.9 °F - 37.0 °F 64% 30.24 in 10.0 mi NNW 12.7 mph - N/A   Clear
9:53 AM 52.0 °F - 37.9 °F 59% 30.25 in 10.0 mi WNW 9.2 mph - N/A   Clear
10:53 AM 55.9 °F - 37.0 °F 49% 30.24 in 10.0 mi NW 8.1 mph - N/A   Clear
11:53 AM 61.0 °F - 37.0 °F 41% 30.22 in 10.0 mi NW 6.9 mph - N/A   Clear
12:53 PM 63.0 °F - 35.1 °F 35% 30.19 in 10.0 mi NNW 4.6 mph - N/A   Clear
1:53 PM 68.0 °F - 34.0 °F 28% 30.16 in 10.0 mi NNW 6.9 mph - N/A   Clear
2:53 PM 70.0 °F - 33.1 °F 26% 30.14 in 10.0 mi NW 11.5 mph 16.1 mph N/A   Clear
3:53 PM 72.0 °F - 32.0 °F 23% 30.13 in 10.0 mi NNW 9.2 mph 18.4 mph N/A   Clear
4:53 PM 72.0 °F - 32.0 °F 23% 30.12 in 10.0 mi NW 10.4 mph - N/A   Clear
5:53 PM 71.1 °F - 33.1 °F 25% 30.12 in 10.0 mi NW 5.8 mph - N/A   Clear
6:53 PM 64.9 °F - 33.1 °F 31% 30.12 in 10.0 mi NW 5.8 mph - N/A   Clear
7:53 PM 60.1 °F - 32.0 °F 35% 30.14 in 10.0 mi WNW 3.5 mph - N/A   Clear
8:53 PM 57.9 °F - 33.1 °F 39% 30.15 in 10.0 mi WNW 5.8 mph - N/A   Clear
9:53 PM 52.0 °F - 36.0 °F 54% 30.17 in 10.0 mi Calm Calm - N/A   Clear
10:53 PM 50.0 °F - 37.9 °F 63% 30.16 in 10.0 mi Calm Calm - N/A   Clear
11:53 PM 48.9 °F - 39.0 °F 69% 30.15 in 10.0 mi Calm Calm - N/A   Clear